Location: Julian California
(33.0790°N, 116.6010°W)
Time: 02:01:42
(UTC-07:00)

GPS 2-05 Rocket1 - Pass Details

Date: 19 May 2017
Orbit: 372 x 443 km, 35.6° (Epoch: 28 June)

Event Time Altitude Azimuth Distance (km) Brightness Sun altitude
Rises 20:36:31 0° 284° (WNW) 2,236 8.0 -10.8°
Reaches altitude 10° 20:38:34 10° 282° (WNW) 1,393 6.6 -11.2°
Maximum altitude 20:41:42 72° 198° (SSW) 409 2.6 -11.7°
Enters shadow 20:43:42 21° 116° (ESE) 939 3.9 -12.1°
